EHI
42 43 44 42 41 39 36 35 35 33 28 25 24 22 21 23 25 23 19 17 18 19 16 12 10 8 4 2 2 2 2 3 2 1 3 5 6 4 2 2 1 0 0
42 43 43 41 39 38 36 34 35 34 29 24 23 22 21 21 22 20 19 17 16 16 15 12 9 7 3 1 1 1 1 2 1 1 3 6 7 5 4 3 1 0 0
40 40 41 40 38 37 35 32 32 33 29 23 21 22 20 19 17 16 16 16 14 13 12 9 7 5 3 1 0 0 1 2 2 2 2 4 5 4 4 3 1 0 0
36 37 38 38 37 36 34 30 28 27 25 22 20 19 17 15 14 13 13 14 13 11 8 7 6 4 2 1 1 1 2 2 2 2 1 1 2 2 1 1 1 1 1
34 34 36 38 36 34 33 29 24 21 20 20 20 17 14 11 9 9 11 13 12 9 7 6 4 2 1 0 1 2 2 2 1 1 0 0 0 1 1 0 0 0 0
33 33 34 36 36 34 32 27 21 18 17 17 18 16 12 7 4 4 7 10 10 8 6 5 2 1 0 0 0 1 1 1 1 0 0 0 0 1 1 1 0 0 0
31 29 29 31 33 32 28 24 20 17 15 14 14 13 9 4 1 1 3 6 7 7 6 4 2 1 0 0 0 0 0 0 0 0 0 0 1 2 1 1 1 0 0
28 25 23 25 27 27 25 24 22 18 15 12 10 9 6 2 0 0 1 2 4 6 6 5 4 2 0 0 1 1 0 0 0 0 0 0 1 2 2 1 1 0 0
26 23 21 21 22 23 25 27 26 21 14 11 10 9 6 3 0 0 0 0 1 4 5 6 4 2 0 0 1 1 0 0 0 0 0 0 0 1 1 1 1 0 0
25 23 22 21 22 23 27 30 29 22 15 12 11 11 9 4 1 0 0 0 0 1 4 4 3 1 0 0 0 1 0 0 0 0 0 0 0 0 0 0 0 0 0
25 25 24 23 22 22 25 28 26 20 14 12 11 11 9 5 1 0 0 0 0 1 2 3 2 1 0 0 0 1 0 0 0 0 0 0 0 0 0 0 0 0 1
26 25 25 23 20 20 22 22 20 17 13 11 11 10 9 6 3 0 0 0 0 0 1 1 1 1 0 0 0 0 0 0 0 0 0 0 0 0 0 0 0 1 2
28 27 24 21 19 19 20 19 17 14 10 9 11 11 10 8 5 2 0 0 0 0 0 0 0 0 0 0 0 0 0 0 0 0 0 0 0 0 0 0 0 1 2
27 26 23 20 19 19 19 17 14 10 8 8 10 11 11 9 6 3 0 0 0 0 0 0 0 0 0 0 0 0 0 0 0 0 0 0 0 0 0 0 0 1 1
24 22 19 17 15 15 15 13 9 5 4 6 7 8 8 7 4 1 0 0 0 0 0 0 0 0 0 0 1 0 0 1 1 2 1 0 0 0 0 0 0 0 0
20 18 14 12 11 11 11 9 6 3 2 2 2 3 3 2 1 0 0 0 0 0 0 0 0 0 0 0 0 0 0 1 2 3 2 1 0 0 0 0 0 0 0
15 14 10 8 9 9 10 8 5 3 2 1 0 0 0 0 0 0 0 0 0 0 0 0 0 0 0 0 0 0 0 1 2 2 2 1 0 0 0 0 0 0 0
12 11 8 8 9 10 10 8 6 5 4 3 1 0 0 0 0 0 0 0 0 0 0 0 0 0 0 0 0 0 0 0 1 1 1 1 0 0 0 0 0 0 0
11 9 8 8 9 9 9 8 6 5 5 4 2 0 0 0 0 0 0 0 0 0 0 0 0 0 0 0 0 0 0 0 0 0 0 0 0 0 0 0 0 0 0
11 8 7 7 7 8 8 7 6 6 5 3 1 0 0 0 0 0 0 0 0 0 0 0 0 0 0 0 0 0 0 0 0 0 0 0 0 0 0 0 0 0 0
10 8 6 6 6 6 5 5 6 5 3 1 0 0 0 0 0 0 0 0 0 0 0 0 0 0 0 0 0 0 0 0 0 0 0 0 0 0 0 0 0 0 0
8 8 7 6 5 4 4 4 4 2 1 0 0 0 0 0 0 0 0 0 0 0 0 0 0 0 0 0 0 0 0 0 0 0 0 0 0 0 0 0 0 0 1
5 6 6 6 5 4 4 3 2 1 0 0 0 0 0 1 1 1 1 1 1 0 0 0 0 0 0 0 0 0 0 0 0 0 0 0 0 0 0 0 0 0 1
5 5 6 6 5 4 3 1 1 0 0 0 0 0 0 1 2 2 2 2 1 0 0 0 0 0 0 0 0 0 0 0 0 0 0 0 0 0 0 0 0 0 1
5 5 5 5 4 3 2 1 0 0 0 0 0 0 0 1 1 2 2 1 1 0 0 0 0 0 0 0 0 0 0 0 0 0 0 0 0 0 0 0 0 0 0
4 5 4 3 3 3 2 1 0 0 0 0 0 0 0 0 0 1 1 0 0 0 0 0 0 0 0 0 0 0 0 0 0 0 0 0 0 0 0 0 0 0 0
Wind_Speed
4 4 3 3 3 3 2 2 2 1 1 1 1 1 1 1 1 1 2 2 2 1 1 1 1 1 1 2 2 1 1 0 0 0 1 1 2 1 2 2 3 3 3
4 3 3 3 3 3 2 2 2 1 1 1 1 1 1 0 0 1 1 1 1 1 1 0 1 1 1 2 2 1 1 0 1 1 1 1 1 1 1 2 2 3 3
4 4 4 3 3 3 2 2 2 1 1 1 1 0 0 0 0 1 1 1 1 1 0 0 0 1 1 1 1 1 1 1 1 1 1 1 1 1 1 1 2 1 2
4 4 3 3 3 3 3 2 2 2 1 1 1 0 1 0 0 0 0 0 0 0 1 1 1 0 1 1 1 1 1 1 0 0 1 1 1 0 0 1 1 1 1
4 3 3 3 3 3 2 2 2 2 2 1 1 1 1 0 1 2 1 0 0 1 1 1 1 1 2 1 1 1 1 1 0 0 0 0 0 0 1 1 1 1 1
3 3 3 3 3 3 2 2 2 2 1 1 1 1 1 1 2 3 2 1 0 1 1 1 1 2 2 2 1 0 1 1 1 1 0 1 1 1 1 1 1 1 1
3 3 3 4 4 3 3 3 2 2 1 1 1 1 1 1 2 2 2 1 0 0 1 1 1 0 1 1 2 2 1 1 2 2 2 2 2 1 1 2 2 2 3
3 3 3 4 4 3 2 2 2 2 1 1 1 1 2 1 1 1 2 1 1 0 0 0 1 0 1 1 2 1 1 0 1 1 1 2 1 1 2 2 3 3 3
3 3 3 3 3 3 3 2 2 2 2 2 1 1 2 1 1 1 1 1 1 1 1 1 1 1 1 0 1 1 1 1 1 0 1 2 3 4 2 1 1 1 2
3 3 3 2 3 3 3 2 2 2 2 2 2 2 2 2 2 1 0 2 1 1 2 2 1 1 1 1 1 1 2 2 2 1 1 2 3 4 4 4 2 2 2
2 2 2 2 2 2 2 2 2 3 3 2 2 2 2 3 4 3 2 1 1 1 1 1 1 3 2 1 1 2 2 2 2 2 2 1 1 1 2 3 2 2 2
1 2 2 2 2 2 2 2 2 3 3 3 3 3 2 3 4 4 4 3 2 2 1 0 1 1 2 3 2 3 3 2 2 2 1 1 1 1 1 2 2 2 2
1 1 2 2 2 2 2 3 3 3 3 3 3 3 3 3 3 5 6 5 3 1 2 2 2 3 3 3 5 5 3 2 2 2 2 2 2 2 1 1 2 2 3
1 1 2 2 2 2 2 2 2 2 2 2 2 2 2 2 2 2 1 2 2 2 2 3 3 5 4 4 4 4 4 3 2 2 2 2 2 1 2 1 2 2 2
2 2 2 2 2 1 1 1 1 0 0 1 1 0 1 1 2 2 1 1 1 1 2 2 2 2 3 3 3 3 3 3 3 2 2 2 1 2 2 1 2 2 2
1 2 2 2 2 2 2 1 3 2 2 3 2 2 2 2 4 4 2 1 1 1 1 3 3 3 3 3 2 2 2 2 2 2 2 2 2 2 2 1 1 1 2
2 2 2 2 2 3 3 3 2 1 2 3 2 3 3 3 3 3 2 1 2 2 3 4 3 3 3 2 2 1 1 1 1 1 2 2 2 2 2 2 1 1 2
3 2 2 2 3 3 3 3 3 3 2 1 2 3 4 4 3 3 2 0 1 2 3 3 3 3 2 1 1 1 1 1 1 1 1 2 2 2 2 2 2 2 2
2 2 2 2 2 2 3 3 2 2 2 2 2 2 3 3 3 3 3 3 3 2 3 2 2 2 1 1 1 1 1 1 1 1 1 2 2 2 2 2 2 3 3
2 3 2 2 3 2 2 2 1 1 1 1 2 2 2 3 2 2 3 3 2 2 2 2 2 2 2 2 1 1 0 1 1 1 2 2 2 2 3 3 3 3 3
1 2 2 2 3 2 2 1 1 1 1 1 1 2 3 3 2 2 2 1 1 1 1 2 2 2 1 1 2 1 1 1 1 1 2 2 2 3 3 3 4 4 3
1 1 1 2 2 1 1 1 1 1 1 1 1 2 3 2 1 1 1 1 1 1 1 2 2 2 2 2 2 1 1 2 2 2 3 3 3 3 3 3 3 3 3
2 2 2 2 2 1 2 2 2 2 1 1 0 1 2 1 0 0 0 0 1 1 1 1 2 2 2 1 1 2 2 2 2 3 3 3 3 3 3 3 4 4 3
2 2 3 2 2 2 3 2 1 1 1 1 1 0 1 1 1 0 0 0 1 1 1 1 1 2 3 3 2 1 2 2 3 2 3 4 4 4 3 3 3 4 3
3 2 2 2 2 2 2 1 1 1 1 0 0 0 0 0 0 1 0 1 1 1 1 1 1 1 2 2 3 3 3 2 2 3 3 3 3 4 4 4 3 4 3
2 2 2 2 2 2 2 1 1 1 1 1 0 0 0 0 0 1 0 1 1 1 1 1 2 2 3 3 3 3 2 2 3 3 3 3 3 3 4 4 4 4 4
Wind_Direction
168 170 163 162 163 161 166 155 138 135 134 149 177 201 216 222 214 205 206 199 201 212 243 242 240 334 323 316 317 332 354 60 150 170 134 137 136 155 169 187 178 171 177
157 149 149 144 151 158 159 149 143 151 170 194 208 213 215 216 229 204 218 193 184 198 252 293 308 284 311 325 320 330 348 134 148 164 146 145 162 174 168 204 188 182 181
143 147 147 150 150 156 161 164 162 173 179 196 189 190 253 143 157 176 173 176 162 148 165 357 304 319 312 307 315 322 324 312 141 168 183 183 164 172 159 213 208 201 206
137 142 151 158 160 165 162 164 165 170 170 173 170 184 178 133 0 354 140 127 125 151 188 179 186 187 311 302 300 311 326 334 328 133 156 140 116 127 153 232 259 234 252
137 143 144 151 163 162 161 158 160 174 173 173 174 190 171 86 8 359 328 193 175 279 234 165 151 122 91 57 349 338 334 347 348 112 129 80 21 8 297 270 281 280 265
151 151 148 155 149 151 157 156 163 168 158 161 169 152 92 52 26 24 10 333 323 286 280 214 165 124 133 148 171 196 225 214 230 234 243 220 244 257 264 270 274 285 281
154 156 162 159 150 153 165 154 155 154 160 175 170 137 111 59 33 17 7 305 296 302 300 289 314 26 158 207 217 214 230 240 222 213 218 234 222 223 246 273 281 279 266
160 163 175 169 155 153 152 157 161 164 185 197 188 158 150 125 66 2 350 253 189 196 241 200 186 237 269 264 245 223 232 288 257 216 216 244 233 236 224 242 259 277 265
173 180 185 172 159 159 153 158 163 181 197 200 169 178 159 156 167 333 327 232 198 202 198 183 193 187 329 339 230 273 289 281 279 246 221 233 232 238 229 247 275 293 296
192 190 182 174 167 162 157 174 185 200 206 208 183 181 183 170 175 195 275 257 237 224 197 177 121 128 92 78 239 253 266 285 301 281 252 244 235 229 218 210 231 257 276
196 180 163 162 167 168 170 184 195 208 211 209 200 194 188 181 176 186 195 246 294 291 258 195 144 139 149 191 250 253 243 269 279 260 234 227 221 208 202 208 218 226 247
186 181 164 175 201 170 168 193 206 210 218 211 208 212 191 182 185 191 197 219 279 307 304 9 98 162 209 230 233 241 259 279 268 262 253 250 232 230 234 236 244 248 237
182 182 181 194 203 175 195 212 218 216 228 227 212 211 196 175 169 186 199 217 239 261 332 328 259 234 239 235 228 235 242 238 242 255 252 249 249 244 237 243 247 253 258
187 199 205 204 203 199 222 226 220 216 223 231 226 218 187 157 133 138 172 197 219 233 275 279 258 247 248 247 239 223 223 230 233 244 254 258 261 257 240 230 246 251 265
214 222 225 218 201 198 208 270 249 83 214 242 267 182 173 150 133 142 160 184 245 260 284 257 239 233 234 233 227 223 218 215 228 243 247 259 265 270 270 254 241 247 248
219 228 227 214 201 208 189 163 51 67 81 84 85 104 92 109 143 137 133 146 196 204 244 252 251 249 246 248 241 231 223 224 233 241 238 244 254 253 265 271 264 267 274
245 243 246 235 216 219 211 192 175 103 73 85 105 116 135 141 140 146 149 246 254 214 231 248 250 253 255 255 257 262 253 248 258 257 255 256 261 264 262 260 260 267 266
247 234 254 252 236 229 222 215 207 184 173 161 160 166 168 174 182 184 150 69 275 224 243 258 263 265 260 261 288 302 290 279 280 279 273 278 278 275 274 270 257 263 273
235 236 245 269 265 247 234 226 218 197 182 166 146 140 177 187 205 223 198 242 259 262 263 274 286 295 303 292 282 307 324 318 323 306 301 296 289 284 281 279 266 265 263
232 253 249 265 266 260 253 252 242 181 176 165 156 144 152 171 190 202 216 244 263 278 288 302 316 322 321 321 318 328 312 301 303 300 302 294 287 284 282 279 275 271 265
239 233 227 254 266 271 262 259 244 214 219 207 160 154 178 213 213 200 204 226 263 293 313 315 310 312 321 325 334 341 339 331 320 312 307 299 295 289 284 275 268 263 265
235 243 230 251 270 280 279 271 243 232 229 221 167 151 180 228 264 38 45 18 340 310 296 297 302 310 325 327 323 326 337 341 333 322 311 299 288 283 282 282 286 277 263
239 234 235 252 260 251 250 250 243 243 240 232 205 163 167 194 144 95 333 335 319 311 309 318 320 322 332 342 346 347 337 329 314 312 310 302 295 291 285 282 285 289 280
235 238 241 236 238 231 233 236 239 258 256 232 242 214 144 161 200 228 310 0 342 324 321 329 335 341 349 347 349 345 347 333 316 305 303 294 293 295 295 290 288 288 284
235 229 235 231 245 254 247 232 250 275 283 276 20 89 110 113 342 303 349 29 13 354 325 315 342 356 356 5 9 4 5 5 349 325 299 287 290 293 291 290 291 291 283
266 258 242 230 220 230 229 215 219 262 274 294 28 41 63 320 315 319 14 32 5 1 340 351 30 16 2 20 36 36 25 9 350 329 304 293 294 292 293 290 295 295 291